[[{"header":{"parameterUnit":"m.s-1","parameterCategory":1,"la1":30.2992,"la2":30.254,"lo1":-89.0895,"lo2":-89.0443,"dy":0.0025,"dx":0.0025,"nx":19,"ny":19,"refTime":"2026-04-22T03:00:00:Z","depth":0,"parameterNumber":2,"parameterNumberName":"U-component_of_WINDS"},"data":[0,0,0,-2.9681,-2.9685,-2.9894,-2.9895,-3.0158,-3.016,0,0,0,0,0,0,0,0,0,0,0,-2.9613,-2.9615,-2.968,-2.9685,-2.9894,-2.9895,-3.0157,-3.016,0,0,0,0,0,0,0,0,0,0,0,-2.9612,-2.9614,-2.9616,-2.9686,-2.9894,-2.9895,-3.0157,-3.0001,0,0,0,0,0,0,0,0,0,0,-2.9799,-2.9731,-2.9614,-2.9616,-2.9687,-2.9893,-2.9895,-2.9994,-3.0011,-3.006,0,-3.01,0,-3.0134,-3.0177,-3.0178,0,0,0,-2.969,-2.9717,-2.9778,-2.9617,-2.9689,-2.9893,-2.9801,-3.0003,-3.0023,-3.0083,-3.0104,-3.0114,-3.0138,-3.0178,-3.018,-3.0443,-3.0444,0,0,-2.9678,-2.9648,-2.9764,-2.979,-2.9754,-2.9794,-2.9807,-3.0015,-3.0037,-3.0105,-3.012,-3.0143,-3.018,-3.0182,-3.0443,-3.0444,0,0,0,-2.9642,-2.964,-2.9696,-2.9779,-2.9817,-2.98,-2.9815,-3.0028,-3.0049,-3.0123,-3.0146,-3.0182,-3.0185,-3.0441,-3.0443,-3.0463,0,0,0,-2.9635,-2.9619,-2.9691,-2.9675,-2.9813,-2.9924,-2.9823,-3.0034,-3.0059,-3.0144,-3.0182,-3.0187,-3.044,-3.0442,-3.046,-3.0478,0,0,0,-2.9602,-2.9615,-2.9643,-2.9673,-2.9761,-2.9922,-2.9955,-3.004,-3.0072,-3.0178,-3.0188,-3.044,-3.0442,-3.0457,-3.0474,-3.0539,0,0,0,-2.9557,-2.9658,-2.9643,-2.9765,-2.9759,-2.9932,-2.9954,-3.0084,-3.0177,-3.0183,-3.0441,-3.0443,-3.0457,-3.0471,-3.0536,-3.0588,-3.0606,0,0,-2.9668,-2.9671,-2.9745,-2.9738,-2.9905,-2.9902,-3.0075,-3.0189,-3.0228,-3.037,-3.0377,-3.0461,-3.0473,-3.0538,-3.0722,-3.0736,0,0,0,-2.9771,-2.9824,-2.9875,-2.9961,-3.0049,-3.0128,-3.0219,-3.0262,-3.0384,-3.0294,-3.0503,-3.0511,-3.0551,-3.0577,-3.059,-3.0626,-3.0454,-3.0453,-3.0453,-2.9885,-2.9928,-3.0054,-3.0123,-3.0207,-3.03,-3.0373,-3.0447,-3.0467,-3.0516,-3.0558,-3.0664,-3.0694,-3.0703,-3.0741,-3.0589,-3.0589,-3.0589,-3.0589,-3.0052,-3.0134,-3.0158,-3.0289,-3.0335,-3.0447,-3.0543,-3.0553,-3.0666,-3.0635,-3.0672,-3.0635,-3.0718,-3.0753,-3.0591,-3.0591,-3.0591,-3.0591,-3.0591,-3.0132,-3.0179,-3.0228,-3.0358,-3.0454,-3.0521,-3.0628,-3.0667,-3.0705,-3.0741,-3.0791,-3.0791,-3.0796,-3.0762,-3.0762,-3.0763,-3.0763,-3.0763,-3.0764,-3.0194,-3.025,-3.0334,-3.0437,-3.0498,-3.0584,-3.0681,-3.0743,-3.0823,-3.0843,-3.0843,-3.0859,-3.0717,-3.0681,-3.0769,-3.0768,-3.0768,-3.0767,-3.0767,-3.0348,-3.032,-3.0449,-3.051,-3.0637,-3.073,-3.0778,-3.0903,-3.096,-3.1012,-3.1021,-3.091,-3.0916,-3.0906,-3.0876,-3.101,-3.101,-3.101,-3.101,-3.0416,-3.0422,-3.0564,-3.0659,-3.0758,-3.0815,-3.0963,-3.104,-3.1116,-3.1155,-3.1142,-3.1106,-3.1094,-3.1107,-3.1093,-3.1066,-3.1245,-3.1246,-3.1246,-3.0513,-3.0531,-3.0648,-3.0719,-3.0821,-3.0909,-3.105,-3.1162,-3.1242,-3.1256,-3.1187,-3.1177,-3.1119,-3.1098,-3.1109,-3.1087,-3.1038,0,0]},{"header":{"parameterUnit":"m.s-1","parameterCategory":1,"la1":30.2992,"la2":30.254,"lo1":-89.0895,"lo2":-89.0443,"dy":0.0025,"dx":0.0025,"nx":19,"ny":19,"refTime":"2026-04-22T03:00:00:Z","depth":0,"parameterNumber":3,"parameterNumberName":"V-component_of_WINDS"},"data":[0,0,0,5.0081,5.0081,5.0053,5.0052,5.0039,5.0039,0,0,0,0,0,0,0,0,0,0,0,5.0105,5.0105,5.0081,5.0081,5.0053,5.0052,5.0039,5.0039,0,0,0,0,0,0,0,0,0,0,0,5.0105,5.0105,5.0106,5.0081,5.0053,5.0052,5.0039,5.0052,0,0,0,0,0,0,0,0,0,0,5.0075,5.0112,5.0105,5.0106,5.0081,5.0053,5.0052,5.0052,5.0051,5.0062,0,5.0077,0,5.0058,5.0039,5.0039,0,0,0,5.0069,5.0114,5.0092,5.0106,5.0081,5.0053,5.0062,5.0051,5.005,5.006,5.0076,5.0075,5.0058,5.0039,5.0039,5.0143,5.0144,0,0,5.0071,5.0108,5.0093,5.0092,5.01,5.0063,5.0061,5.005,5.0069,5.0076,5.0074,5.0057,5.0039,5.004,5.0142,5.0143,0,0,0,5.0083,5.011,5.0088,5.0093,5.0087,5.0063,5.006,5.007,5.0059,5.0074,5.0057,5.004,5.004,5.014,5.0142,5.0228,0,0,0,5.0083,5.0117,5.0089,5.0111,5.0087,5.0078,5.0081,5.006,5.0058,5.0057,5.004,5.004,5.0139,5.0141,5.0223,5.0261,0,0,0,5.0101,5.0118,5.012,5.0113,5.0103,5.0077,5.0066,5.0059,5.0048,5.0039,5.004,5.0139,5.0141,5.0218,5.0254,5.0297,0,0,0,5.0131,5.0198,5.0122,5.0189,5.0103,5.0132,5.0066,5.0085,5.0088,5.004,5.0139,5.0142,5.0217,5.025,5.0293,5.0338,5.0362,0,0,5.0235,5.0211,5.0248,5.0179,5.0231,5.0133,5.0196,5.0164,5.0129,5.014,5.0142,5.0224,5.0254,5.0296,5.0483,5.0502,0,0,0,5.0293,5.032,5.0325,5.033,5.0307,5.0289,5.0244,5.0231,5.0238,5.0143,5.0252,5.0268,5.0291,5.0311,5.0327,5.0343,5.0154,5.0153,5.0153,5.0493,5.0445,5.0501,5.0449,5.0454,5.0405,5.0404,5.0379,5.0329,5.0356,5.0358,5.0477,5.0502,5.0514,5.0532,5.038,5.0381,5.0381,5.0381,5.0639,5.0667,5.0599,5.0629,5.0577,5.0601,5.0556,5.052,5.0533,5.0472,5.049,5.0426,5.0536,5.0549,5.0387,5.0386,5.0385,5.0385,5.0384,5.0762,5.0767,5.0751,5.0751,5.0756,5.0701,5.0717,5.0669,5.0625,5.0643,5.0638,5.0636,5.0626,5.0644,5.0645,5.0645,5.0646,5.0646,5.0646,5.0895,5.0874,5.0893,5.0874,5.0869,5.0857,5.0808,5.0802,5.0782,5.0746,5.0745,5.0691,5.0557,5.0523,5.0652,5.0651,5.065,5.065,5.0649,5.1056,5.1012,5.1042,5.1037,5.1009,5.1016,5.0955,5.0946,5.0934,5.0942,5.0884,5.0794,5.0765,5.0752,5.0723,5.0896,5.0896,5.0896,5.0896,5.1158,5.1139,5.1158,5.1153,5.1144,5.1092,5.1124,5.1086,5.1039,5.1027,5.0996,5.0954,5.0943,5.0921,5.0904,5.0876,5.1085,5.1085,5.1085,5.1253,5.1231,5.1269,5.1223,5.1197,5.1175,5.1203,5.1198,5.1136,5.1091,5.1017,5.1009,5.0941,5.0922,5.0874,5.0849,5.0797,0,0]}]]